Overview Statistics Trail Chart Weather Telemetry Raw packets
 

This is the latest recevied weather packets stored in our database for station/object N2VUZ-1. If no packets are shown the sender has not sent any weather packets the latest 10 day(s).

<< 3 4 5 6 7 8 9 >>
Time Temp. Humidity Pressure Rain* Wind** Luminosity Snow
1788277761 31.67° C 67% 1015.7 hPa 0 mm - - -
1788277461 31.67° C 69% 1015.8 hPa 0 mm - - -
1788277161 31.11° C 70% 1015.6 hPa 0 mm - - -
1788276861 31.11° C 68% 1015.6 hPa 0 mm - - -
1788276561 30.56° C 70% 1015.6 hPa 0 mm - - -
1788276261 30° C 71% 1015.8 hPa 0 mm - - -
1788275961 30° C 71% 1015.9 hPa 0 mm - - -
1788275661 30° C 72% 1016.1 hPa 0 mm - - -
1788275361 30° C 72% 1016 hPa 0 mm - - -
1788275061 30° C 70% 1015.9 hPa 0 mm - - -
1788274761 30° C 70% 1015.9 hPa 0 mm - - -
1788274461 30.56° C 70% 1016 hPa 0 mm - - -
1788274161 30° C 71% 1016.1 hPa 0 mm - - -
1788273861 29.44° C 72% 1016.1 hPa 0 mm - - -
1788273561 30° C 72% 1015.7 hPa 0 mm - - -
1788273261 30° C 72% 1015.8 hPa 0 mm - - -
1788272961 30° C 72% 1015.8 hPa 0 mm - - -
1788272661 29.44° C 71% 1015.9 hPa 0 mm - - -
1788272361 30° C 69% 1016.1 hPa 0 mm - - -
1788272061 30° C 71% 1016 hPa 0 mm - - -
1788271761 30° C 74% 1015.8 hPa 0 mm - - -
1788271461 29.44° C 72% 1016.1 hPa 0 mm - - -
1788271161 29.44° C 75% 1016.2 hPa 0 mm - - -
1788270861 28.89° C 75% 1016.2 hPa 0 mm - - -
1788270561 28.89° C 76% 1016.1 hPa 0 mm - - -

* Rain latest hour (hover to see other rain measurements)
** Current wind speed in m/s (hover to see current wind gust speed)